Showing default

OPS 1117 (TRANSIT 12), 2119

Orbit data source: Space-Track

OPS 1117 (TRANSIT 12), 2119 is a payload satellite owned by USN BuWeps (US) in LEO that was launched on Sat, 26 Mar 1966 UTC via an SCOUT A launch vehicle from the Air Force Western Test Range (AFWTR). Payload-class satellites include a variety of spacecraft equipped with specific instruments for various scientific and technological missions. These include communications satellites like Starlink; space stations such as the ISS; scientific satellites like the Hubble; Earth observation satellites from companies like Planet Labs, Umbra, and HawkEye 360; GPS; miniature CubeSats for education and research; and military/defense satellites.

Loading next visibility...
Identifier
2119, 1966-024A
Orbit
LEO
Country
Flag of USUS
Related business
Manufacturer
APL
Mission
Spacecraft
Bus & Motor
TRANSIT 5, Unknown motor
Mass
51 kg wet, 51 kg dry
Launch date (UTC)
1966-03-26 (60 years ago)
Launch vehicle
SCOUT A
Launch site
Air Force Western Test Range (AFWTR)
Object type
Payload
Rocket body
Debris
Shape & HBR
Unknown
Radar Cross Section
Large (>1 m²)

Expand to show TLE details & history
Last TLE update: 10 hours ago

TLE from 10 hours ago
0 OPS 1117 (TRANSIT 12)
1  2119U 66024A   26110.36114022  .00000128  00000-0  11336-3 0  9998
2  2119  89.6010  90.8760 0144766 220.1933 138.8457 13.75393789  7207
Epoch: 2026-04-20T08:40Z
TLE epoch observation values (Epoch: 2026-04-20T08:40:02.515Z)
Latitude
0.00006°
Longitude
112.41314°
Altitude
1,064.14 km
Speed
7.28 km/s
True Right ascension
06h 03m 30s
True Declination
0° 00' 00"
Sunlit
Object was in daylight at epoch
Visualization orbit readout
Latitude
Unknown
Longitude
Unknown
Altitude
Unknown
Speed
Unknown
Apparent Right ascension
Unknown
Apparent Declination
Unknown
Sunlit
N/A
Visualization observer readout
Local Sidereal Time
01:13:05
Azimuth
Unknown
Elevation
Unknown
Doppler factor
Unknown
Orbital elements
Apogee altitude
1,083.764 km
Perigee altitude
870.801 km
Semi-major axis
7,355.419 km
Eccentricity
0.01448
Inclination
89.601°
RAAN
90.876°
Arg. of periapsis
220.1933°
True anomaly
139.92266°
Mean anomaly
138.8457°
Eccentric anomaly
139.38564°
Mean motion
3.44058 °/min
Orbital period
104.63 mins
BSTAR
0.00011336
Loading maneuver chart data...
Computing Atmospheric mass density...
Loading historical data...
Loading historical data...
Loading historical data...
Loading historical data...
Loading historical data...
Loading historical data...
Loading historical data...

Documentation

Showing up to 5 results
|